Regional Weather Roundup
Issued by NWS Columbia, SC

Home | Current Version | Previous Version | Text Only | Print | Product List | Glossary On
Versions: 1 2 3 4 5 6 7 8 9 10 11 12 13 14 15 16 17 18 19 20 21 22 23 24 25 26 27 28 29 30 31 32 33 34 35 36 37 38 39 40 41 42 43 44 45 46 47 48 49 50
000
ASUS42 KCAE 240110
RWRCAE
REGIONAL WEATHER ROUNDUP
NATIONAL WEATHER SERVICE COLUMBIA SC
900 PM EDT WED AUG 23 2017

NOTE: "FAIR" INDICATES FEW OR NO CLOUDS BELOW 12,000 FEET WITH NO
SIGNIFICANT WEATHER AND/OR OBSTRUCTIONS TO VISIBILITY.

NOT ALL STATIONS ARE QUALITY CONTROLLED BY THE NATIONAL
WEATHER SERVICE. USE DATA WITH CAUTION...ESPECIALLY
DEWPOINT OBSERVATIONS.

SCZ001>056-GAZ040-063>065-077-240200-
...UPSTATE SOUTH CAROLINA...

CITY           SKY/WX    TMP DP  RH WIND       PRES   REMARKS
ANDERSON       PTCLDY    80  69  69 NE3       29.85R
LIBERTY        PTCLDY    78  73  84 CALM      29.86S
SPARTANBURG    CLOUDY    81  63  54 N5        29.85R
CLEMSON        CLEAR     82  74  76 CALM      29.86S
GREENVILLE     MOCLDY    83  67  58 N5        29.87R
GREENWOOD      CLEAR     82  71  69 W6        29.85R
GREER          PTCLDY    83  65  54 N5        29.85R
ROCK HILL      CLEAR     77  74  90 CALM      29.86R
CHESTER        MOCLDY    77  70  78 CALM      29.86R
LAURENS        MOCLDY    81  70  69 E7        29.85R


...CENTRAL SOUTH CAROLINA...

CITY           SKY/WX    TMP DP  RH WIND       PRES   REMARKS
COLUMBIA APT   PTCLDY    84  71  65 CALM      29.80S THUNDER
COLUMBIA OWENS PTCLDY    85  68  56 CALM      29.81S
MCENTIRE ANGB  MOCLDY    82  72  71 CALM      29.81R
ORANGEBURG     CLEAR     83  74  74 S6        29.82R
SUMTER SHAW    MOCLDY    83  73  70 W3        29.79R
NEWBERRY       MOCLDY    79  72  78 NE9       29.88R THUNDER
AIKEN          FAIR      81  70  69 SW5       29.87R
BARNWELL       FAIR      86  75  70 CALM      29.83R HX  95
MANNING        FAIR      86  73  66 MISG      29.83R THUNDER
CAMDEN         CLOUDY    81  73  78 CALM      29.83S
LANCASTER      PTCLDY    75  75 100 CALM      29.84R
WINNSBORO      TSTM      79  72  78 W10       29.85R


...EASTERN AND COASTAL SOUTH CAROLINA...

CITY           SKY/WX    TMP DP  RH WIND       PRES   REMARKS
MYRTLE BEACH   CLEAR     84  77  79 SW17      29.82F
N MYRTLE BCH   CLOUDY    84  77  79 SW17      29.83R
CONWAY         FAIR      81  75  83 S3        29.83R
HARTSVILLE     MOCLDY    77  72  83 W3        29.83R
FLORENCE       CLOUDY    76  72  87 E6        29.82S
DARLINGTON       N/A     77  74  90 E6        29.82R
CHARLESTON APT CLOUDY    82  77  84 S8        29.83S
MOUNT PLEASANT FAIR      82  77  83 S7        29.83F
WALTERBORO     PTCLDY    81  77  89 S5        29.84S
BEAUFORT       PTCLDY    85  78  80 S6        29.84R HX  96


...EASTERN GEORGIA...

CITY           SKY/WX    TMP DP  RH WIND       PRES   REMARKS
AUGUSTA BUSH F CLEAR     83  76  79 W3        29.82R
AUGUSTA DANIEL CLEAR     88  69  53 W3        29.85R
THOMSON        CLEAR     79  73  82 NW5       29.90R
WASHINGTON     FAIR     N/A N/A N/A W3        29.85S
CLAXTON        MOCLDY    78  76  95 CALM      29.85R
SYLVANIA       MOCLDY    82  74  78 CALM      29.85R
STATESBORO     PTCLDY    81  69  66 S6        29.84S
SAVANNAH       CLOUDY    79  77  94 S7        29.85R


...SOUTHERN NORTH CAROLINA...

CITY           SKY/WX    TMP DP  RH WIND       PRES   REMARKS
CHARLOTTE      PTCLDY    79  72  79 CALM      29.86R
MONROE         CLEAR     76  71  85 CALM      29.84S
WADESBORO      MOCLDY    78  71  80 CALM      29.83R
ROCKINGHAM     MOCLDY    78  75  90 CALM      29.83S
RUTHERFORDTON  CLEAR     79  64  61 CALM      29.89R
ASHEVILLE      CLEAR     75  61  61 N5        29.96R

$$



USA.gov is the U.S. government's official web portal to all federal, state and local government web resources and services.